When you browse on this site, cookies collect data to enhance your experience and personalize the content and advertising you see.
Visit our Privacy Policy to learn more. By continuing to use the site, you agree to this use of cookies and data.

Previsão horária em Abaigar

Hoje, 28 Setembro, Segunda-feira

Tempo Temperatura Precipitação Vento Pressão Humidade
00:00 +8°C° 0 mm 3 m/s 709 mmHg 85%
01:00 +8°C° 0 mm 3 m/s 709 mmHg 85%
02:00 +8°C° 0 mm 3 m/s 709 mmHg 85%
03:00 +8°C° 0 mm 3 m/s 708 mmHg 84%
04:00 +7°C° 0 mm 3 m/s 708 mmHg 86%
05:00 +7°C° 0 mm 2 m/s 709 mmHg 87%
06:00 +7°C° 0 mm 3 m/s 709 mmHg 88%
07:00 +8°C° 0 mm 3 m/s 709 mmHg 82%
08:00 +10°C° 0 mm 3 m/s 709 mmHg 75%
09:00 +11°C° 0 mm 3 m/s 709 mmHg 69%
10:00 +12°C° 0 mm 3 m/s 709 mmHg 64%
11:00 +14°C° 0 mm 4 m/s 709 mmHg 59%
12:00 +15°C° 0 mm 4 m/s 709 mmHg 54%
13:00 +15°C° 0 mm 4 m/s 709 mmHg 53%
14:00 +15°C° 0 mm 4 m/s 709 mmHg 53%
15:00 +17°C° 0 mm 4 m/s 708 mmHg 52%
16:00 +14°C° 0 mm 3 m/s 709 mmHg 59%
17:00 +12°C° 0 mm 3 m/s 709 mmHg 67%
18:00 +12°C° 0 mm 2 m/s 709 mmHg 74%
19:00 +10°C° 0 mm 2 m/s 709 mmHg 78%
20:00 +9°C° 0 mm 2 m/s 709 mmHg 81%
21:00 +8°C° 0 mm 2 m/s 709 mmHg 84%
22:00 +8°C° 0 mm 2 m/s 709 mmHg 85%
23:00 +9°C° 0 mm 1 m/s 709 mmHg 86%

Amanhã, 29 Setembro, Terça-feira

Tempo Temperatura Precipitação Vento Pressão Humidade
00:00 +9°C° 0 mm 1 m/s 709 mmHg 87%
01:00 +8°C° 0 mm 1 m/s 709 mmHg 86%
02:00 +8°C° 0 mm 1 m/s 708 mmHg 85%
03:00 +8°C° 0 mm 1 m/s 708 mmHg 84%
04:00 +8°C° 0 mm 1 m/s 708 mmHg 83%
05:00 +8°C° 0 mm 1 m/s 708 mmHg 81%
06:00 +8°C° 0 mm 1 m/s 708 mmHg 80%
07:00 +9°C° 0 mm 0 m/s 709 mmHg 71%
08:00 +11°C° 0 mm 0 m/s 709 mmHg 61%
09:00 +13°C° 0 mm 0 m/s 709 mmHg 52%
10:00 +16°C° 0 mm 1 m/s 709 mmHg 47%
11:00 +18°C° 0 mm 1 m/s 710 mmHg 43%
12:00 +20°C° 0 mm 1 m/s 710 mmHg 38%
13:00 +21°C° 0 mm 1 m/s 709 mmHg 36%
14:00 +21°C° 0 mm 1 m/s 709 mmHg 34%
15:00 +22°C° 0 mm 1 m/s 709 mmHg 32%
16:00 +20°C° 0 mm 1 m/s 708 mmHg 39%
17:00 +18°C° 0 mm 1 m/s 708 mmHg 46%
18:00 +14°C° 0 mm 0 m/s 708 mmHg 52%
19:00 +13°C° 0 mm 0 m/s 708 mmHg 55%
20:00 +13°C° 0 mm 0 m/s 708 mmHg 58%
21:00 +13°C° 0 mm 1 m/s 708 mmHg 61%
22:00 +12°C° 0 mm 0 m/s 708 mmHg 61%
23:00 +12°C° 0 mm 0 m/s 708 mmHg 61%

Depois de amanhã, 30 Setembro, Quarta-feira

Tempo Temperatura Precipitação Vento Pressão Humidade
00:00 +11°C° 0 mm 0 m/s 707 mmHg 61%
01:00 +11°C° 0 mm 0 m/s 707 mmHg 61%
02:00 +11°C° 0 mm 0 m/s 707 mmHg 60%
03:00 +10°C° 0 mm 0 m/s 707 mmHg 60%
04:00 +10°C° 0 mm 0 m/s 706 mmHg 60%
05:00 +10°C° 0 mm 0 m/s 706 mmHg 60%
06:00 +10°C° 0 mm 0 m/s 706 mmHg 60%
07:00 +12°C° 0 mm 0 m/s 707 mmHg 54%
08:00 +14°C° 0 mm 0 m/s 707 mmHg 48%
09:00 +18°C° 0 mm 1 m/s 707 mmHg 42%
10:00 +20°C° 0 mm 1 m/s 707 mmHg 39%
11:00 +22°C° 0 mm 1 m/s 707 mmHg 35%
12:00 +23°C° 0 mm 1 m/s 707 mmHg 32%
13:00 +23°C° 0 mm 1 m/s 707 mmHg 32%
14:00 +24°C° 0 mm 1 m/s 706 mmHg 32%
15:00 +24°C° 0 mm 1 m/s 706 mmHg 32%
16:00 +22°C° 0 mm 1 m/s 706 mmHg 43%
17:00 +19°C° 0 mm 1 m/s 705 mmHg 54%
18:00 +16°C° 0 mm 2 m/s 705 mmHg 65%
19:00 +15°C° 0 mm 2 m/s 705 mmHg 72%
20:00 +14°C° 0 mm 2 m/s 705 mmHg 79%
21:00 +13°C° 0 mm 2 m/s 705 mmHg 85%
22:00 +13°C° 0 mm 1 m/s 705 mmHg 84%
23:00 +13°C° 0 mm 1 m/s 704 mmHg 82%

1 Outubro, Quinta-feira

Tempo Temperatura Precipitação Vento Pressão Humidade
00:00 +12°C° 0 mm 1 m/s 704 mmHg 81%
01:00 +12°C° 0 mm 1 m/s 704 mmHg 78%
02:00 +12°C° 0 mm 1 m/s 703 mmHg 75%
03:00 +12°C° 0 mm 1 m/s 703 mmHg 72%
04:00 +12°C° 0 mm 1 m/s 703 mmHg 71%
05:00 +12°C° 0 mm 1 m/s 703 mmHg 69%
06:00 +13°C° 0 mm 1 m/s 703 mmHg 67%
07:00 +14°C° 0 mm 1 m/s 703 mmHg 64%
08:00 +15°C° 0 mm 1 m/s 704 mmHg 61%
09:00 +18°C° 0 mm 1 m/s 704 mmHg 58%
10:00 +18°C° 0 mm 2 m/s 704 mmHg 55%
11:00 +19°C° 0 mm 3 m/s 703 mmHg 52%
12:00 +21°C° 0 mm 3 m/s 703 mmHg 49%
13:00 +21°C° 0.1 mm 3 m/s 703 mmHg 49%
14:00 +21°C° 0.1 mm 4 m/s 702 mmHg 50%
15:00 +20°C° 0.1 mm 4 m/s 701 mmHg 51%
16:00 +19°C° 0.1 mm 3 m/s 701 mmHg 57%
17:00 +18°C° 0.1 mm 2 m/s 701 mmHg 62%
18:00 +18°C° 0.1 mm 1 m/s 700 mmHg 67%
19:00 +16°C° 0 mm 1 m/s 700 mmHg 71%
20:00 +16°C° 0 mm 1 m/s 700 mmHg 74%
21:00 +15°C° 0 mm 1 m/s 699 mmHg 78%
22:00 +15°C° 0 mm 1 m/s 698 mmHg 76%
23:00 +15°C° 0 mm 2 m/s 697 mmHg 74%

2 Outubro, Sexta-feira

Tempo Temperatura Precipitação Vento Pressão Humidade
00:00 +14°C° 0 mm 3 m/s 696 mmHg 73%
01:00 +13°C° 0 mm 3 m/s 695 mmHg 71%
02:00 +13°C° 0 mm 3 m/s 694 mmHg 69%
03:00 +13°C° 0 mm 4 m/s 693 mmHg 67%
04:00 +13°C° 0.5 mm 3 m/s 693 mmHg 69%
05:00 +13°C° 0.5 mm 3 m/s 693 mmHg 72%
06:00 +14°C° 0.5 mm 2 m/s 692 mmHg 75%
07:00 +12°C° 1.2 mm 3 m/s 692 mmHg 76%
08:00 +11°C° 1.2 mm 4 m/s 692 mmHg 78%
09:00 +10°C° 1.2 mm 4 m/s 692 mmHg 79%
10:00 +8°C° 0.8 mm 4 m/s 692 mmHg 80%
11:00 +8°C° 0.8 mm 3 m/s 692 mmHg 80%
12:00 +7°C° 0.8 mm 2 m/s 692 mmHg 81%
13:00 +8°C° 0.6 mm 2 m/s 692 mmHg 76%
14:00 +9°C° 0.6 mm 2 m/s 692 mmHg 71%
15:00 +12°C° 0.6 mm 2 m/s 693 mmHg 66%
16:00 +11°C° 0.5 mm 1 m/s 693 mmHg 70%
17:00 +10°C° 0.5 mm 1 m/s 693 mmHg 73%
18:00 +9°C° 0.5 mm 1 m/s 693 mmHg 77%
19:00 +9°C° 0.2 mm 1 m/s 693 mmHg 77%
20:00 +9°C° 0.2 mm 1 m/s 693 mmHg 78%
21:00 +8°C° 0.2 mm 1 m/s 694 mmHg 79%
22:00 +8°C° 0 mm 1 m/s 694 mmHg 80%
23:00 +7°C° 0 mm 1 m/s 694 mmHg 81%

3 Outubro, Sábado

Tempo Temperatura Precipitação Vento Pressão Humidade
00:00 +7°C° 0 mm 1 m/s 695 mmHg 82%
01:00 +6°C° 0 mm 1 m/s 695 mmHg 82%
02:00 +6°C° 0 mm 1 m/s 694 mmHg 82%
03:00 +6°C° 0 mm 1 m/s 694 mmHg 82%
04:00 +5°C° 0 mm 1 m/s 695 mmHg 83%
05:00 +4°C° 0 mm 2 m/s 695 mmHg 83%
06:00 +4°C° 0 mm 2 m/s 695 mmHg 83%
07:00 +5°C° 0 mm 2 m/s 696 mmHg 77%
08:00 +7°C° 0 mm 3 m/s 696 mmHg 70%
09:00 +9°C° 0 mm 3 m/s 697 mmHg 63%
10:00 +10°C° 0 mm 4 m/s 697 mmHg 57%
11:00 +11°C° 0 mm 4 m/s 697 mmHg 51%
12:00 +12°C° 0 mm 5 m/s 697 mmHg 46%
13:00 +11°C° 0.1 mm 6 m/s 697 mmHg 48%
14:00 +11°C° 0.1 mm 6 m/s 696 mmHg 51%
15:00 +10°C° 0.1 mm 7 m/s 696 mmHg 54%
16:00 +9°C° 0.2 mm 6 m/s 696 mmHg 61%
17:00 +8°C° 0.2 mm 4 m/s 696 mmHg 69%
18:00 +8°C° 0.2 mm 3 m/s 696 mmHg 76%
19:00 +8°C° 0.5 mm 3 m/s 696 mmHg 78%
20:00 +8°C° 0.5 mm 3 m/s 696 mmHg 80%
21:00 +8°C° 0.5 mm 3 m/s 696 mmHg 82%
22:00 +8°C° 0.1 mm 3 m/s 697 mmHg 82%
23:00 +8°C° 0.1 mm 2 m/s 697 mmHg 82%
Mostrar mais